GW6020 Weather Reports


time (UTC)temp
C
wind
direction
speed
KPH
gust
KPH
rain 1hr
cm
rain 24hr
cm
rain mn
cm
humidity
%
barometer
mb
20260504151005 16 295 4.8 24.1 0.00 0.00 0.00 38 1012.2
20260504150504 16 283 9.7 24.1 0.00 0.00 0.00 36 1012.4
20260504141009 16 271 4.8 19.3 0.00 0.00 0.00 38 1012.2
20260504140511 15 295 4.8 29.0 0.00 0.00 0.00 38 1012.3
20260504130509 13 360 6.4 24.1 0.00 0.00 0.00 41 1012.9
20260504110508 8 360 0.0 4.8 0.00 0.00 0.00 55 1013.1
20260504100512 8 320 0.0 8.0 0.00 0.00 0.00 56 1012.7
20260504082003 7 220 0.0 1.6 0.00 0.00 0.00 56 1012.3
20260504081513 7 224 0.0 3.2 0.00 0.00 0.00 56 1012.4
20260504081007 7 259 0.0 3.2 0.00 0.00 0.00 55 1012.4
20260504080504 7 210 0.0 4.8 0.00 0.00 0.00 55 1012.4
20260504050514 6 219 0.0 0.0 0.00 0.00 0.00 60 1011.9
20260504045509 6 219 0.0 0.0 0.00 0.00 0.00 58 1011.9
20260504045009 6 219 0.0 0.0 0.00 0.00 0.00 57 1012.1
20260504044516 6 219 0.0 0.0 0.00 0.00 0.00 57 1012.1
20260504044006 6 219 0.0 0.0 0.00 0.00 0.00 58 1012.1
20260504043507 6 219 0.0 0.0 0.00 0.00 0.00 59 1012.1
20260504043021 6 219 0.0 0.0 0.00 0.00 0.00 59 1012.1
20260504042507 6 219 0.0 0.0 0.00 0.00 0.00 57 1012.1
20260504042007 6 223 0.0 0.0 0.00 0.00 0.00 58 1012.0
20260504041521 6 223 0.0 0.0 0.00 0.00 0.00 57 1011.9
20260504041008 7 223 0.0 0.0 0.00 0.00 0.00 56 1012.0
20260504040508 7 223 0.0 0.0 0.00 0.00 0.00 55 1012.0
20260504040029 7 223 0.0 0.0 0.00 0.00 0.00 55 1012.0
20260504035511 7 223 0.0 0.0 0.00 0.00 0.00 55 1012.0
20260504035013 7 229 0.0 0.0 0.00 0.00 0.00 55 1011.9
20260504034526 7 229 0.0 0.0 0.00 0.00 0.00 55 1012.0
20260504034017 7 229 0.0 0.0 0.00 0.00 0.00 53 1011.9
20260504033510 7 229 0.0 0.0 0.00 0.00 0.00 53 1011.9
20260504033018 7 229 0.0 0.0 0.00 0.00 0.00 53 1011.8
20260504032505 7 229 0.0 0.0 0.00 0.00 0.00 51 1011.8
20260504032009 7 229 0.0 0.0 0.00 0.00 0.00 51 1011.7
20260504031522 7 229 0.0 0.0 0.00 0.00 0.00 49 1011.7
20260504031007 8 229 0.0 0.0 0.00 0.00 0.00 49 1011.7
20260504030507 8 229 0.0 0.0 0.00 0.00 0.00 49 1011.7
20260504030027 8 232 0.0 3.2 0.00 0.00 0.00 49 1011.8
20260504025508 8 233 0.0 3.2 0.00 0.00 0.00 48 1011.8
20260504025008 8 240 0.0 3.2 0.00 0.00 0.00 47 1011.8
20260504024528 8 229 0.0 3.2 0.00 0.00 0.00 46 1011.7
20260504024009 8 233 0.0 3.2 0.00 0.00 0.00 45 1011.8
20260504023510 8 229 0.0 3.2 0.00 0.00 0.00 45 1011.8
20260504023030 8 229 0.0 3.2 0.00 0.00 0.00 45 1011.7
20260504022513 8 248 0.0 3.2 0.00 0.00 0.00 45 1011.9
20260504022008 9 276 0.0 3.2 0.00 0.00 0.00 44 1011.8
20260504021519 9 272 0.0 3.2 0.00 0.00 0.00 44 1011.8
20260504021009 9 272 0.0 3.2 0.00 0.00 0.00 43 1011.8
20260504020508 9 272 0.0 3.2 0.00 0.00 0.00 43 1011.8
20260504020025 9 297 0.0 3.2 0.00 0.00 0.00 42 1011.8
20260504015508 9 297 1.6 3.2 0.00 0.00 0.00 42 1011.9
20260504015016 9 262 0.0 3.2 0.00 0.00 0.00 42 1011.8
20260504014540 10 249 0.0 4.8 0.00 0.00 0.00 42 1011.7
20260504014007 10 280 0.0 4.8 0.00 0.00 0.00 41 1011.7
20260504013510 10 260 0.0 3.2 0.00 0.00 0.00 41 1011.7
20260504013026 10 255 0.0 4.8 0.00 0.00 0.00 41 1011.6
20260504012513 10 243 0.0 4.8 0.00 0.00 0.00 40 1011.5
20260504012011 10 279 0.0 3.2 0.00 0.00 0.00 40 1011.5
20260504011530 10 266 0.0 3.2 0.00 0.00 0.00 40 1011.4
20260504011011 10 276 0.0 4.8 0.00 0.00 0.00 39 1011.3
20260504010513 10 288 0.0 4.8 0.00 0.00 0.00 39 1011.2
20260504010004 10 266 0.0 3.2 0.00 0.00 0.00 39 1011.1
20260504005503 10 251 0.0 3.2 0.00 0.00 0.00 38 1011.0
20260504005004 10 263 0.0 3.2 0.00 0.00 0.00 38 1011.0
20260504004507 10 263 0.0 3.2 0.00 0.00 0.00 38 1010.9
20260504004004 10 242 0.0 3.2 0.00 0.00 0.00 38 1010.9
20260504003503 10 257 0.0 3.2 0.00 0.00 0.00 37 1010.9
20260504003010 10 288 0.0 0.0 0.00 0.00 0.00 37 1010.8
20260504002504 10 264 0.0 3.2 0.00 0.00 0.00 37 1010.7
20260504002005 10 257 0.0 3.2 0.00 0.00 0.00 37 1010.6
20260504001516 11 275 0.0 3.2 0.00 0.00 0.00 35 1010.6
20260504001007 11 276 0.0 9.7 0.00 0.00 0.00 35 1010.6
20260504000459 11 297 0.0 9.7 0.00 0.00 0.00 36 1010.5
20260504000006 11 295 1.6 8.0 0.00 0.00 0.00 36 1010.5
20260503235505 11 54 0.0 3.2 0.00 0.00 0.00 36 1010.4
20260503235003 11 259 0.0 3.2 0.00 0.00 0.00 37 1010.3
20260503234504 11 262 0.0 4.8 0.00 0.00 0.00 36 1010.2
20260503234004 11 295 0.0 4.8 0.00 0.00 0.00 36 1010.1
20260503233504 11 354 0.0 0.0 0.00 0.00 0.00 37 1010.0
20260503233009 11 271 0.0 0.0 0.00 0.00 0.00 37 1010.0
20260503232504 11 269 0.0 1.6 0.00 0.00 0.00 36 1010.0
20260503232004 11 281 0.0 3.2 0.00 0.00 0.00 35 1010.0
20260503231512 11 281 0.0 3.2 0.00 0.00 0.00 35 1010.0
20260503231006 11 330 0.0 3.2 0.00 0.00 0.00 35 1010.0
20260503230504 12 320 0.0 4.8 0.00 0.00 0.00 35 1009.9
20260503230016 12 292 0.0 4.8 0.00 0.00 0.00 34 1009.8
20260503225504 12 278 0.0 4.8 0.00 0.00 0.00 33 1009.8
20260503225003 12 312 1.6 6.4 0.00 0.00 0.00 33 1009.7
20260503224503 13 91 1.6 11.3 0.00 0.00 0.00 33 1009.7
20260503224005 13 253 1.6 11.3 0.00 0.00 0.00 32 1009.7
20260503223503 13 274 1.6 6.4 0.00 0.00 0.00 32 1009.7
20260503223005 13 345 0.0 12.9 0.00 0.00 0.00 33 1009.7
20260503222504 13 51 0.0 12.9 0.00 0.00 0.00 33 1009.7
20260503222004 13 304 1.6 11.3 0.00 0.00 0.00 33 1009.6
20260503221508 13 281 1.6 16.1 0.00 0.00 0.00 32 1009.6
20260503221006 13 321 4.8 22.5 0.00 0.00 0.00 33 1009.6
20260503220506 13 276 1.6 22.5 0.00 0.00 0.00 33 1009.6
20260503220020 13 272 3.2 9.7 0.00 0.00 0.00 32 1009.6
20260503215506 13 342 3.2 14.5 0.00 0.00 0.00 32 1009.6
20260503215006 13 17 1.6 14.5 0.00 0.00 0.00 33 1009.6
20260503214529 13 298 3.2 11.3 0.00 0.00 0.00 33 1009.7
20260503214002 13 58 3.2 11.3 0.00 0.00 0.00 33 1009.8
20260503213504 13 57 1.6 11.3 0.00 0.00 0.00 35 1009.6
20260503213003 13 255 3.2 14.5 0.00 0.00 0.00 35 1009.5
20260503212504 13 221 3.2 20.9 0.00 0.00 0.00 36 1009.6
20260503212005 13 346 1.6 20.9 0.00 0.00 0.00 35 1009.5
20260503211509 13 238 4.8 11.3 0.00 0.00 0.00 36 1009.6
20260503211004 13 53 0.0 6.4 0.00 0.00 0.00 36 1009.5
20260503210504 13 328 1.6 11.3 0.00 0.00 0.00 38 1009.6
20260503210035 13 316 1.6 11.3 0.00 0.00 0.00 37 1009.7
20260503205509 13 292 1.6 6.4 0.00 0.00 0.00 37 1009.6
20260503205007 13 39 0.0 17.7 0.00 0.00 0.00 39 1009.6
20260503204516 12 291 3.2 17.7 0.00 0.00 0.00 40 1009.6
20260503204008 12 86 3.2 9.7 0.00 0.00 0.00 37 1009.6
20260503203507 12 25 1.6 12.9 0.00 0.00 0.00 38 1009.5
20260503203004 12 30 4.8 20.9 0.00 0.00 0.00 37 1009.6
20260503202504 12 49 3.2 20.9 0.00 0.00 0.00 38 1009.5
20260503202003 12 11 1.6 14.5 0.00 0.00 0.00 37 1009.6
20260503201506 12 4 4.8 20.9 0.00 0.00 0.00 38 1009.6
20260503201004 12 360 3.2 20.9 0.00 0.00 0.00 37 1009.7
20260503200504 12 287 6.4 20.9 0.00 0.00 0.00 36 1009.8
20260503200015 13 360 4.8 24.1 0.00 0.00 0.00 37 1009.9
20260503195504 13 302 3.2 24.1 0.00 0.00 0.00 37 1009.7
20260503195005 13 34 1.6 29.0 0.00 0.00 0.00 39 1009.6
20260503194516 12 237 4.8 29.0 0.00 0.00 0.00 38 1009.9
20260503194008 12 276 4.8 16.1 0.00 0.00 0.00 39 1009.8
20260503193505 12 259 8.0 14.5 0.00 0.00 0.00 39 1009.8
20260503193020 11 11 3.2 14.5 0.00 0.00 0.00 41 1010.0
20260503192507 10 6 3.2 20.9 0.00 0.00 0.00 41 1009.9
20260503192000 11 266 1.6 20.9 0.00 0.00 0.00 39 1010.0
20260503191504 11 312 1.6 20.9 0.00 0.00 0.00 39 1010.0
20260503191002 12 16 1.6 20.9 0.00 0.00 0.00 39 1010.0
20260503190506 12 10 4.8 25.7 0.00 0.00 0.00 41 1009.9
20260503190008 11 293 6.4 25.7 0.00 0.00 0.00 40 1010.0
20260503185504 11 297 1.6 17.7 0.00 0.00 0.00 39 1009.9
20260503185009 11 300 3.2 19.3 0.00 0.00 0.00 39 1009.9
20260503184515 12 309 4.8 19.3 0.00 0.00 0.00 37 1009.9
20260503184006 12 60 3.2 14.5 0.00 0.00 0.00 39 1009.8
20260503183504 12 285 3.2 14.5 0.00 0.00 0.00 41 1009.8
20260503183019 11 13 3.2 16.1 0.00 0.00 0.00 40 1009.9
20260503182510 11 295 4.8 20.9 0.00 0.00 0.00 39 1010.0
20260503182010 11 256 4.8 20.9 0.00 0.00 0.00 40 1010.0
20260503181521 11 294 4.8 14.5 0.00 0.00 0.00 42 1009.8
20260503181006 11 315 3.2 20.9 0.00 0.00 0.00 40 1009.7
20260503180503 11 321 8.0 20.9 0.00 0.00 0.00 39 1009.7
20260503180008 11 359 3.2 17.7 0.00 0.00 0.00 41 1009.8
20260503175504 11 230 6.4 17.7 0.00 0.00 0.00 39 1009.8
20260503175003 11 276 6.4 17.7 0.00 0.00 0.00 37 1009.9
20260503174510 11 97 3.2 16.1 0.00 0.00 0.00 41 1009.8
20260503174006 11 309 1.6 14.5 0.00 0.00 0.00 40 1009.7
20260503173504 11 221 4.8 17.7 0.00 0.00 0.00 40 1009.8
20260503173016 11 9 3.2 17.7 0.00 0.00 0.00 39 1010.0
20260503172512 11 44 3.2 24.1 0.00 0.00 0.00 37 1009.9
20260503172010 11 25 3.2 24.1 0.00 0.00 0.00 39 1010.0
20260503171520 11 285 4.8 19.3 0.00 0.00 0.00 39 1009.9
20260503171008 11 311 3.2 19.3 0.00 0.00 0.00 40 1009.8
20260503170507 11 300 3.2 17.7 0.00 0.00 0.00 40 1009.8